This is the latest recevied weather packets stored in our database for station/object WC4PEM-11. If no packets are shown the sender has not sent any weather packets the latest 10 day(s).
| Time | Temp. | Humidity | Pressure | Rain* | Wind** | Luminosity | Snow |
|---|---|---|---|---|---|---|---|
| 1788554876 | 32.22° C | 73% | 1013.7 hPa | 0 mm | - | - | - |
| 1788554576 | 32.22° C | 74% | 1013.7 hPa | 0 mm | - | - | - |
| 1788554276 | 32.22° C | 75% | 1013.6 hPa | 0 mm | - | - | - |
| 1788553976 | 31.67° C | 76% | 1013.7 hPa | 0 mm | - | - | - |
| 1788553676 | 31.67° C | 78% | 1013.7 hPa | 0 mm | - | - | - |
| 1788553376 | 31.11° C | 76% | 1013.8 hPa | 0 mm | - | - | - |
| 1788553076 | 31.11° C | 76% | 1014.1 hPa | 0 mm | - | - | - |
| 1788552776 | 31.11° C | 74% | 1014 hPa | 0 mm | - | - | - |
| 1788552476 | 31.11° C | 77% | 1014.1 hPa | 0 mm | - | - | - |
| 1788552176 | 30° C | 79% | 1014 hPa | 0 mm | - | - | - |
| 1788551876 | 29.44° C | 81% | 1014 hPa | 0 mm | - | - | - |
| 1788551576 | 28.89° C | 81% | 1014 hPa | 0 mm | - | - | - |
| 1788551276 | 28.89° C | 81% | 1014.3 hPa | 0 mm | - | - | - |
| 1788550976 | 28.89° C | 81% | 1014.5 hPa | 0 mm | - | - | - |
| 1788550676 | 28.33° C | 80% | 1014.5 hPa | 0 mm | - | - | - |
| 1788550376 | 28.33° C | 79% | 1014.4 hPa | 0 mm | - | - | - |
| 1788550076 | 28.89° C | 78% | 1014.5 hPa | 0 mm | - | - | - |
| 1788549776 | 28.89° C | 76% | 1014.6 hPa | 0 mm | - | - | - |
| 1788549476 | 29.44° C | 76% | 1014.7 hPa | 0 mm | - | - | - |
| 1788549176 | 30° C | 74% | 1014.9 hPa | 0 mm | - | - | - |
| 1788548876 | 30.56° C | 74% | 1015 hPa | 0 mm | - | - | - |
| 1788548576 | 30.56° C | 73% | 1015 hPa | 0 mm | - | - | - |
| 1788548276 | 31.11° C | 73% | 1015 hPa | 0 mm | - | - | - |
| 1788547976 | 31.67° C | 73% | 1015.1 hPa | 0 mm | - | - | - |
| 1788547676 | 32.22° C | 71% | 1015.1 hPa | 0 mm | - | - | - |
* Rain latest hour (hover to see other rain measurements)
** Current wind speed in m/s (hover to see current wind gust speed)